Tracking 27420 objects as of 29-May-2023
HD Live streaming from Space Station
objects crossing your sky now

FLOCK 4S 31

Track FLOCK 4S 31 now!
10-day predictions
FLOCK 4S 31 is classified as:


NORAD ID: 47475
Int'l Code: 2021-006BQ
Perigee: 456.5 km
Apogee: 465.2 km
Inclination: 97.4 °
Period: 93.7 minutes
Semi major axis: 6831 km
RCS: Unknown
Launch date: January 24, 2021
Source: United States (US)
Launch site: ()
Your satellite tracking list
Your tracking list is empty




NASA's NSSDC Master Catalog

Two Line Element Set (TLE):
1 47475U 21006BQ  23149.11584291  .00018892  00000-0  51591-3 0  9998
2 47475  97.3841 208.5582 0006372 139.8066 220.3650 15.37438237129870
Source of the keplerian elements: AFSPC